<?xml version="1.0" encoding="UTF-8" standalone="no" ?>
<gpx xmlns="http://www.topografix.com/GPX/1/1" xmlns:xsi="http://www.w3.org/2001/XMLSchema-instance" xsi:schemaLocation="http://www.topografix.com/GPX/1/1 http://www.topografix.com/GPX/1/1/gpx.xsd" version="1.1" creator="VisuGPX - https://www.visugpx.com">
  <metadata>
    <name>13882262-Parcours 2022 20 kms</name>
  </metadata>
  <trk>
    <name><![CDATA[13882262-Parcours 2022 20 kms]]></name>
    <trkseg>
      <trkpt lat="46.59534" lon="-1.45326">
        <ele>55</ele>
        <time>2022-02-27T18:06:13Z</time>
      </trkpt>
      <trkpt lat="46.59545" lon="-1.45318">
        <ele>55</ele>
        <time>2022-02-27T18:06:16Z</time>
      </trkpt>
      <trkpt lat="46.59557" lon="-1.4531">
        <ele>55</ele>
        <time>2022-02-27T18:06:19Z</time>
      </trkpt>
      <trkpt lat="46.59567" lon="-1.45299">
        <ele>55</ele>
        <time>2022-02-27T18:06:22Z</time>
      </trkpt>
      <trkpt lat="46.59561" lon="-1.45273">
        <ele>55</ele>
        <time>2022-02-27T18:06:26Z</time>
      </trkpt>
      <trkpt lat="46.5956" lon="-1.45255">
        <ele>54</ele>
        <time>2022-02-27T18:06:29Z</time>
      </trkpt>
      <trkpt lat="46.59565" lon="-1.45235">
        <ele>54</ele>
        <time>2022-02-27T18:06:33Z</time>
      </trkpt>
      <trkpt lat="46.59581" lon="-1.45225">
        <ele>54</ele>
        <time>2022-02-27T18:06:37Z</time>
      </trkpt>
      <trkpt lat="46.59597" lon="-1.45278">
        <ele>55</ele>
        <time>2022-02-27T18:06:46Z</time>
      </trkpt>
      <trkpt lat="46.59627" lon="-1.45268">
        <ele>55</ele>
        <time>2022-02-27T18:06:53Z</time>
      </trkpt>
      <trkpt lat="46.59639" lon="-1.45247">
        <ele>55</ele>
        <time>2022-02-27T18:06:58Z</time>
      </trkpt>
      <trkpt lat="46.59654" lon="-1.4524">
        <ele>55</ele>
        <time>2022-02-27T18:07:01Z</time>
      </trkpt>
      <trkpt lat="46.59651" lon="-1.45202">
        <ele>54</ele>
        <time>2022-02-27T18:07:07Z</time>
      </trkpt>
      <trkpt lat="46.59659" lon="-1.45196">
        <ele>54</ele>
        <time>2022-02-27T18:07:09Z</time>
      </trkpt>
      <trkpt lat="46.59668" lon="-1.45175">
        <ele>53</ele>
        <time>2022-02-27T18:07:13Z</time>
      </trkpt>
      <trkpt lat="46.59676" lon="-1.45163">
        <ele>53</ele>
        <time>2022-02-27T18:07:16Z</time>
      </trkpt>
      <trkpt lat="46.59671" lon="-1.45118">
        <ele>53</ele>
        <time>2022-02-27T18:07:23Z</time>
      </trkpt>
      <trkpt lat="46.59723" lon="-1.4512">
        <ele>55</ele>
        <time>2022-02-27T18:07:36Z</time>
      </trkpt>
      <trkpt lat="46.59727" lon="-1.45082">
        <ele>55</ele>
        <time>2022-02-27T18:07:42Z</time>
      </trkpt>
      <trkpt lat="46.59878" lon="-1.45048">
        <ele>59</ele>
        <time>2022-02-27T18:08:17Z</time>
      </trkpt>
      <trkpt lat="46.59917" lon="-1.45021">
        <ele>59</ele>
        <time>2022-02-27T18:08:27Z</time>
      </trkpt>
      <trkpt lat="46.59947" lon="-1.44975">
        <ele>57</ele>
        <time>2022-02-27T18:08:38Z</time>
      </trkpt>
      <trkpt lat="46.59962" lon="-1.44966">
        <ele>57</ele>
        <time>2022-02-27T18:08:41Z</time>
      </trkpt>
      <trkpt lat="46.6001" lon="-1.44964">
        <ele>56</ele>
        <time>2022-02-27T18:08:53Z</time>
      </trkpt>
      <trkpt lat="46.60028" lon="-1.44947">
        <ele>57</ele>
        <time>2022-02-27T18:08:58Z</time>
      </trkpt>
      <trkpt lat="46.60037" lon="-1.44905">
        <ele>57</ele>
        <time>2022-02-27T18:09:05Z</time>
      </trkpt>
      <trkpt lat="46.60056" lon="-1.4489">
        <ele>58</ele>
        <time>2022-02-27T18:09:10Z</time>
      </trkpt>
      <trkpt lat="46.60082" lon="-1.44908">
        <ele>59</ele>
        <time>2022-02-27T18:09:17Z</time>
      </trkpt>
      <trkpt lat="46.60123" lon="-1.44928">
        <ele>60</ele>
        <time>2022-02-27T18:09:27Z</time>
      </trkpt>
      <trkpt lat="46.60186" lon="-1.44867">
        <ele>60</ele>
        <time>2022-02-27T18:09:44Z</time>
      </trkpt>
      <trkpt lat="46.60214" lon="-1.44838">
        <ele>59</ele>
        <time>2022-02-27T18:09:52Z</time>
      </trkpt>
      <trkpt lat="46.60231" lon="-1.44817">
        <ele>59</ele>
        <time>2022-02-27T18:09:58Z</time>
      </trkpt>
      <trkpt lat="46.60163" lon="-1.44617">
        <ele>52</ele>
        <time>2022-02-27T18:10:33Z</time>
      </trkpt>
      <trkpt lat="46.60162" lon="-1.44586">
        <ele>50</ele>
        <time>2022-02-27T18:10:38Z</time>
      </trkpt>
      <trkpt lat="46.60172" lon="-1.44574">
        <ele>50</ele>
        <time>2022-02-27T18:10:41Z</time>
      </trkpt>
      <trkpt lat="46.60193" lon="-1.44573">
        <ele>49</ele>
        <time>2022-02-27T18:10:46Z</time>
      </trkpt>
      <trkpt lat="46.60215" lon="-1.4457">
        <ele>49</ele>
        <time>2022-02-27T18:10:51Z</time>
      </trkpt>
      <trkpt lat="46.60247" lon="-1.44551">
        <ele>48</ele>
        <time>2022-02-27T18:10:59Z</time>
      </trkpt>
      <trkpt lat="46.60272" lon="-1.44524">
        <ele>47</ele>
        <time>2022-02-27T18:11:07Z</time>
      </trkpt>
      <trkpt lat="46.60308" lon="-1.44483">
        <ele>47</ele>
        <time>2022-02-27T18:11:17Z</time>
      </trkpt>
      <trkpt lat="46.60317" lon="-1.44446">
        <ele>46</ele>
        <time>2022-02-27T18:11:24Z</time>
      </trkpt>
      <trkpt lat="46.60413" lon="-1.44482">
        <ele>48</ele>
        <time>2022-02-27T18:11:47Z</time>
      </trkpt>
      <trkpt lat="46.60422" lon="-1.44511">
        <ele>49</ele>
        <time>2022-02-27T18:11:52Z</time>
      </trkpt>
      <trkpt lat="46.60442" lon="-1.44452">
        <ele>47</ele>
        <time>2022-02-27T18:12:03Z</time>
      </trkpt>
      <trkpt lat="46.60458" lon="-1.44452">
        <ele>47</ele>
        <time>2022-02-27T18:12:06Z</time>
      </trkpt>
      <trkpt lat="46.60496" lon="-1.44431">
        <ele>46</ele>
        <time>2022-02-27T18:12:16Z</time>
      </trkpt>
      <trkpt lat="46.60523" lon="-1.44423">
        <ele>47</ele>
        <time>2022-02-27T18:12:22Z</time>
      </trkpt>
      <trkpt lat="46.60533" lon="-1.44415">
        <ele>47</ele>
        <time>2022-02-27T18:12:25Z</time>
      </trkpt>
      <trkpt lat="46.60555" lon="-1.44405">
        <ele>47</ele>
        <time>2022-02-27T18:12:30Z</time>
      </trkpt>
      <trkpt lat="46.60593" lon="-1.44383">
        <ele>47</ele>
        <time>2022-02-27T18:12:40Z</time>
      </trkpt>
      <trkpt lat="46.60619" lon="-1.44371">
        <ele>47</ele>
        <time>2022-02-27T18:12:46Z</time>
      </trkpt>
      <trkpt lat="46.6063" lon="-1.44387">
        <ele>47</ele>
        <time>2022-02-27T18:12:50Z</time>
      </trkpt>
      <trkpt lat="46.60631" lon="-1.44434">
        <ele>48</ele>
        <time>2022-02-27T18:12:57Z</time>
      </trkpt>
      <trkpt lat="46.6064" lon="-1.44445">
        <ele>48</ele>
        <time>2022-02-27T18:13:00Z</time>
      </trkpt>
      <trkpt lat="46.6065" lon="-1.44426">
        <ele>47</ele>
        <time>2022-02-27T18:13:04Z</time>
      </trkpt>
      <trkpt lat="46.60653" lon="-1.44387">
        <ele>47</ele>
        <time>2022-02-27T18:13:10Z</time>
      </trkpt>
      <trkpt lat="46.60665" lon="-1.44381">
        <ele>47</ele>
        <time>2022-02-27T18:13:13Z</time>
      </trkpt>
      <trkpt lat="46.60665" lon="-1.44343">
        <ele>46</ele>
        <time>2022-02-27T18:13:19Z</time>
      </trkpt>
      <trkpt lat="46.60671" lon="-1.44264">
        <ele>45</ele>
        <time>2022-02-27T18:13:32Z</time>
      </trkpt>
      <trkpt lat="46.60506" lon="-1.43697">
        <ele>63</ele>
        <time>2022-02-27T18:15:11Z</time>
      </trkpt>
      <trkpt lat="46.60566" lon="-1.43635">
        <ele>65</ele>
        <time>2022-02-27T18:15:28Z</time>
      </trkpt>
      <trkpt lat="46.60417" lon="-1.43367">
        <ele>70</ele>
        <time>2022-02-27T18:16:23Z</time>
      </trkpt>
      <trkpt lat="46.6029" lon="-1.43251">
        <ele>70</ele>
        <time>2022-02-27T18:16:58Z</time>
      </trkpt>
      <trkpt lat="46.60204" lon="-1.43105">
        <ele>68</ele>
        <time>2022-02-27T18:17:29Z</time>
      </trkpt>
      <trkpt lat="46.60082" lon="-1.42944">
        <ele>66</ele>
        <time>2022-02-27T18:18:08Z</time>
      </trkpt>
      <trkpt lat="46.60041" lon="-1.42759">
        <ele>67</ele>
        <time>2022-02-27T18:18:39Z</time>
      </trkpt>
      <trkpt lat="46.60025" lon="-1.42647">
        <ele>65</ele>
        <time>2022-02-27T18:18:57Z</time>
      </trkpt>
      <trkpt lat="46.59988" lon="-1.42431">
        <ele>65</ele>
        <time>2022-02-27T18:19:33Z</time>
      </trkpt>
      <trkpt lat="46.59946" lon="-1.4227">
        <ele>65</ele>
        <time>2022-02-27T18:20:01Z</time>
      </trkpt>
      <trkpt lat="46.60017" lon="-1.42208">
        <ele>65</ele>
        <time>2022-02-27T18:20:20Z</time>
      </trkpt>
      <trkpt lat="46.60148" lon="-1.42159">
        <ele>63</ele>
        <time>2022-02-27T18:20:51Z</time>
      </trkpt>
      <trkpt lat="46.60095" lon="-1.42034">
        <ele>62</ele>
        <time>2022-02-27T18:21:15Z</time>
      </trkpt>
      <trkpt lat="46.60286" lon="-1.41937">
        <ele>56</ele>
        <time>2022-02-27T18:22:02Z</time>
      </trkpt>
      <trkpt lat="46.60348" lon="-1.41873">
        <ele>56</ele>
        <time>2022-02-27T18:22:20Z</time>
      </trkpt>
      <trkpt lat="46.60419" lon="-1.41746">
        <ele>56</ele>
        <time>2022-02-27T18:22:46Z</time>
      </trkpt>
      <trkpt lat="46.60484" lon="-1.41801">
        <ele>56</ele>
        <time>2022-02-27T18:23:04Z</time>
      </trkpt>
      <trkpt lat="46.60565" lon="-1.41956">
        <ele>59</ele>
        <time>2022-02-27T18:23:35Z</time>
      </trkpt>
      <trkpt lat="46.60592" lon="-1.4204">
        <ele>59</ele>
        <time>2022-02-27T18:23:50Z</time>
      </trkpt>
      <trkpt lat="46.60637" lon="-1.41955">
        <ele>58</ele>
        <time>2022-02-27T18:24:07Z</time>
      </trkpt>
      <trkpt lat="46.60658" lon="-1.4191">
        <ele>57</ele>
        <time>2022-02-27T18:24:16Z</time>
      </trkpt>
      <trkpt lat="46.60595" lon="-1.41872">
        <ele>57</ele>
        <time>2022-02-27T18:24:32Z</time>
      </trkpt>
      <trkpt lat="46.60448" lon="-1.41735">
        <ele>55</ele>
        <time>2022-02-27T18:25:13Z</time>
      </trkpt>
      <trkpt lat="46.60339" lon="-1.41583">
        <ele>55</ele>
        <time>2022-02-27T18:25:48Z</time>
      </trkpt>
      <trkpt lat="46.60282" lon="-1.41469">
        <ele>57</ele>
        <time>2022-02-27T18:26:10Z</time>
      </trkpt>
      <trkpt lat="46.60243" lon="-1.41445">
        <ele>58</ele>
        <time>2022-02-27T18:26:20Z</time>
      </trkpt>
      <trkpt lat="46.60151" lon="-1.41383">
        <ele>60</ele>
        <time>2022-02-27T18:26:44Z</time>
      </trkpt>
      <trkpt lat="46.60059" lon="-1.41358">
        <ele>62</ele>
        <time>2022-02-27T18:27:06Z</time>
      </trkpt>
      <trkpt lat="46.59915" lon="-1.41214">
        <ele>64</ele>
        <time>2022-02-27T18:27:47Z</time>
      </trkpt>
      <trkpt lat="46.59866" lon="-1.41177">
        <ele>66</ele>
        <time>2022-02-27T18:28:00Z</time>
      </trkpt>
      <trkpt lat="46.59886" lon="-1.41164">
        <ele>66</ele>
        <time>2022-02-27T18:28:05Z</time>
      </trkpt>
      <trkpt lat="46.59922" lon="-1.41127">
        <ele>66</ele>
        <time>2022-02-27T18:28:15Z</time>
      </trkpt>
      <trkpt lat="46.59905" lon="-1.41102">
        <ele>66</ele>
        <time>2022-02-27T18:28:21Z</time>
      </trkpt>
      <trkpt lat="46.59887" lon="-1.4107">
        <ele>66</ele>
        <time>2022-02-27T18:28:27Z</time>
      </trkpt>
      <trkpt lat="46.59893" lon="-1.41003">
        <ele>66</ele>
        <time>2022-02-27T18:28:38Z</time>
      </trkpt>
      <trkpt lat="46.59875" lon="-1.40937">
        <ele>65</ele>
        <time>2022-02-27T18:28:50Z</time>
      </trkpt>
      <trkpt lat="46.59856" lon="-1.40882">
        <ele>65</ele>
        <time>2022-02-27T18:28:59Z</time>
      </trkpt>
      <trkpt lat="46.59852" lon="-1.40785">
        <ele>64</ele>
        <time>2022-02-27T18:29:15Z</time>
      </trkpt>
      <trkpt lat="46.59837" lon="-1.40696">
        <ele>65</ele>
        <time>2022-02-27T18:29:30Z</time>
      </trkpt>
      <trkpt lat="46.5982" lon="-1.40609">
        <ele>63</ele>
        <time>2022-02-27T18:29:44Z</time>
      </trkpt>
      <trkpt lat="46.59794" lon="-1.40506">
        <ele>60</ele>
        <time>2022-02-27T18:30:02Z</time>
      </trkpt>
      <trkpt lat="46.59777" lon="-1.4042">
        <ele>56</ele>
        <time>2022-02-27T18:30:16Z</time>
      </trkpt>
      <trkpt lat="46.59768" lon="-1.40387">
        <ele>56</ele>
        <time>2022-02-27T18:30:22Z</time>
      </trkpt>
      <trkpt lat="46.59783" lon="-1.4029">
        <ele>58</ele>
        <time>2022-02-27T18:30:38Z</time>
      </trkpt>
      <trkpt lat="46.59799" lon="-1.40201">
        <ele>60</ele>
        <time>2022-02-27T18:30:53Z</time>
      </trkpt>
      <trkpt lat="46.59842" lon="-1.40138">
        <ele>60</ele>
        <time>2022-02-27T18:31:07Z</time>
      </trkpt>
      <trkpt lat="46.59853" lon="-1.40072">
        <ele>60</ele>
        <time>2022-02-27T18:31:18Z</time>
      </trkpt>
      <trkpt lat="46.59819" lon="-1.39992">
        <ele>61</ele>
        <time>2022-02-27T18:31:33Z</time>
      </trkpt>
      <trkpt lat="46.59786" lon="-1.39937">
        <ele>59</ele>
        <time>2022-02-27T18:31:45Z</time>
      </trkpt>
      <trkpt lat="46.59755" lon="-1.39867">
        <ele>60</ele>
        <time>2022-02-27T18:31:58Z</time>
      </trkpt>
      <trkpt lat="46.59657" lon="-1.39754">
        <ele>52</ele>
        <time>2022-02-27T18:32:27Z</time>
      </trkpt>
      <trkpt lat="46.59609" lon="-1.3973">
        <ele>49</ele>
        <time>2022-02-27T18:32:39Z</time>
      </trkpt>
      <trkpt lat="46.59576" lon="-1.39757">
        <ele>48</ele>
        <time>2022-02-27T18:32:48Z</time>
      </trkpt>
      <trkpt lat="46.59513" lon="-1.39765">
        <ele>52</ele>
        <time>2022-02-27T18:33:03Z</time>
      </trkpt>
      <trkpt lat="46.59468" lon="-1.39772">
        <ele>54</ele>
        <time>2022-02-27T18:33:13Z</time>
      </trkpt>
      <trkpt lat="46.59463" lon="-1.39677">
        <ele>52</ele>
        <time>2022-02-27T18:33:28Z</time>
      </trkpt>
      <trkpt lat="46.59463" lon="-1.39649">
        <ele>52</ele>
        <time>2022-02-27T18:33:33Z</time>
      </trkpt>
      <trkpt lat="46.59429" lon="-1.39606">
        <ele>53</ele>
        <time>2022-02-27T18:33:43Z</time>
      </trkpt>
      <trkpt lat="46.59353" lon="-1.39598">
        <ele>56</ele>
        <time>2022-02-27T18:34:01Z</time>
      </trkpt>
      <trkpt lat="46.59333" lon="-1.39583">
        <ele>57</ele>
        <time>2022-02-27T18:34:06Z</time>
      </trkpt>
      <trkpt lat="46.59311" lon="-1.3959">
        <ele>58</ele>
        <time>2022-02-27T18:34:12Z</time>
      </trkpt>
      <trkpt lat="46.59231" lon="-1.39375">
        <ele>62</ele>
        <time>2022-02-27T18:34:51Z</time>
      </trkpt>
      <trkpt lat="46.59208" lon="-1.39345">
        <ele>63</ele>
        <time>2022-02-27T18:34:58Z</time>
      </trkpt>
      <trkpt lat="46.59143" lon="-1.39322">
        <ele>65</ele>
        <time>2022-02-27T18:35:14Z</time>
      </trkpt>
      <trkpt lat="46.59136" lon="-1.3912">
        <ele>63</ele>
        <time>2022-02-27T18:35:46Z</time>
      </trkpt>
      <trkpt lat="46.5908" lon="-1.39107">
        <ele>66</ele>
        <time>2022-02-27T18:36:00Z</time>
      </trkpt>
      <trkpt lat="46.59052" lon="-1.39079">
        <ele>65</ele>
        <time>2022-02-27T18:36:07Z</time>
      </trkpt>
      <trkpt lat="46.59017" lon="-1.38975">
        <ele>64</ele>
        <time>2022-02-27T18:36:26Z</time>
      </trkpt>
      <trkpt lat="46.59027" lon="-1.38847">
        <ele>62</ele>
        <time>2022-02-27T18:36:47Z</time>
      </trkpt>
      <trkpt lat="46.59048" lon="-1.38812">
        <ele>61</ele>
        <time>2022-02-27T18:36:54Z</time>
      </trkpt>
      <trkpt lat="46.58971" lon="-1.38754">
        <ele>61</ele>
        <time>2022-02-27T18:37:14Z</time>
      </trkpt>
      <trkpt lat="46.5897" lon="-1.38716">
        <ele>61</ele>
        <time>2022-02-27T18:37:21Z</time>
      </trkpt>
      <trkpt lat="46.58947" lon="-1.38695">
        <ele>61</ele>
        <time>2022-02-27T18:37:27Z</time>
      </trkpt>
      <trkpt lat="46.58951" lon="-1.38618">
        <ele>59</ele>
        <time>2022-02-27T18:37:39Z</time>
      </trkpt>
      <trkpt lat="46.59009" lon="-1.38617">
        <ele>57</ele>
        <time>2022-02-27T18:37:53Z</time>
      </trkpt>
      <trkpt lat="46.5908" lon="-1.38553">
        <ele>53</ele>
        <time>2022-02-27T18:38:12Z</time>
      </trkpt>
      <trkpt lat="46.5913" lon="-1.38541">
        <ele>51</ele>
        <time>2022-02-27T18:38:24Z</time>
      </trkpt>
      <trkpt lat="46.59187" lon="-1.38479">
        <ele>50</ele>
        <time>2022-02-27T18:38:41Z</time>
      </trkpt>
      <trkpt lat="46.59281" lon="-1.3843">
        <ele>49</ele>
        <time>2022-02-27T18:39:04Z</time>
      </trkpt>
      <trkpt lat="46.5936" lon="-1.38432">
        <ele>49</ele>
        <time>2022-02-27T18:39:23Z</time>
      </trkpt>
      <trkpt lat="46.59379" lon="-1.38366">
        <ele>48</ele>
        <time>2022-02-27T18:39:34Z</time>
      </trkpt>
      <trkpt lat="46.59463" lon="-1.3829">
        <ele>48</ele>
        <time>2022-02-27T18:39:57Z</time>
      </trkpt>
      <trkpt lat="46.59503" lon="-1.38278">
        <ele>48</ele>
        <time>2022-02-27T18:40:07Z</time>
      </trkpt>
      <trkpt lat="46.59536" lon="-1.38297">
        <ele>49</ele>
        <time>2022-02-27T18:40:15Z</time>
      </trkpt>
      <trkpt lat="46.59572" lon="-1.38291">
        <ele>49</ele>
        <time>2022-02-27T18:40:23Z</time>
      </trkpt>
      <trkpt lat="46.59567" lon="-1.38224">
        <ele>47</ele>
        <time>2022-02-27T18:40:34Z</time>
      </trkpt>
      <trkpt lat="46.59534" lon="-1.38137">
        <ele>42</ele>
        <time>2022-02-27T18:40:50Z</time>
      </trkpt>
      <trkpt lat="46.5958" lon="-1.3805">
        <ele>37</ele>
        <time>2022-02-27T18:41:08Z</time>
      </trkpt>
      <trkpt lat="46.59608" lon="-1.37925">
        <ele>33</ele>
        <time>2022-02-27T18:41:29Z</time>
      </trkpt>
      <trkpt lat="46.59662" lon="-1.37943">
        <ele>34</ele>
        <time>2022-02-27T18:41:42Z</time>
      </trkpt>
      <trkpt lat="46.59714" lon="-1.37955">
        <ele>33</ele>
        <time>2022-02-27T18:41:54Z</time>
      </trkpt>
      <trkpt lat="46.59765" lon="-1.3795">
        <ele>32</ele>
        <time>2022-02-27T18:42:06Z</time>
      </trkpt>
      <trkpt lat="46.59818" lon="-1.37888">
        <ele>31</ele>
        <time>2022-02-27T18:42:22Z</time>
      </trkpt>
      <trkpt lat="46.59903" lon="-1.37869">
        <ele>32</ele>
        <time>2022-02-27T18:42:42Z</time>
      </trkpt>
      <trkpt lat="46.59997" lon="-1.37779">
        <ele>34</ele>
        <time>2022-02-27T18:43:08Z</time>
      </trkpt>
      <trkpt lat="46.60172" lon="-1.37656">
        <ele>37</ele>
        <time>2022-02-27T18:43:54Z</time>
      </trkpt>
      <trkpt lat="46.60183" lon="-1.37901">
        <ele>31</ele>
        <time>2022-02-27T18:44:33Z</time>
      </trkpt>
      <trkpt lat="46.60235" lon="-1.37893">
        <ele>33</ele>
        <time>2022-02-27T18:44:45Z</time>
      </trkpt>
      <trkpt lat="46.60244" lon="-1.37917">
        <ele>34</ele>
        <time>2022-02-27T18:44:50Z</time>
      </trkpt>
      <trkpt lat="46.60236" lon="-1.3798">
        <ele>34</ele>
        <time>2022-02-27T18:45:00Z</time>
      </trkpt>
      <trkpt lat="46.60287" lon="-1.38">
        <ele>34</ele>
        <time>2022-02-27T18:45:12Z</time>
      </trkpt>
      <trkpt lat="46.6029" lon="-1.38024">
        <ele>34</ele>
        <time>2022-02-27T18:45:16Z</time>
      </trkpt>
      <trkpt lat="46.60247" lon="-1.38222">
        <ele>35</ele>
        <time>2022-02-27T18:45:50Z</time>
      </trkpt>
      <trkpt lat="46.60341" lon="-1.38355">
        <ele>37</ele>
        <time>2022-02-27T18:46:20Z</time>
      </trkpt>
      <trkpt lat="46.60362" lon="-1.38418">
        <ele>37</ele>
        <time>2022-02-27T18:46:31Z</time>
      </trkpt>
      <trkpt lat="46.60371" lon="-1.38504">
        <ele>40</ele>
        <time>2022-02-27T18:46:45Z</time>
      </trkpt>
      <trkpt lat="46.60415" lon="-1.38587">
        <ele>40</ele>
        <time>2022-02-27T18:47:02Z</time>
      </trkpt>
      <trkpt lat="46.60408" lon="-1.38616">
        <ele>41</ele>
        <time>2022-02-27T18:47:07Z</time>
      </trkpt>
      <trkpt lat="46.60287" lon="-1.38846">
        <ele>46</ele>
        <time>2022-02-27T18:47:54Z</time>
      </trkpt>
      <trkpt lat="46.60262" lon="-1.38959">
        <ele>49</ele>
        <time>2022-02-27T18:48:13Z</time>
      </trkpt>
      <trkpt lat="46.60245" lon="-1.38984">
        <ele>50</ele>
        <time>2022-02-27T18:48:18Z</time>
      </trkpt>
      <trkpt lat="46.60408" lon="-1.39079">
        <ele>38</ele>
        <time>2022-02-27T18:48:59Z</time>
      </trkpt>
      <trkpt lat="46.60456" lon="-1.39094">
        <ele>35</ele>
        <time>2022-02-27T18:49:11Z</time>
      </trkpt>
      <trkpt lat="46.60463" lon="-1.39127">
        <ele>36</ele>
        <time>2022-02-27T18:49:16Z</time>
      </trkpt>
      <trkpt lat="46.605" lon="-1.39176">
        <ele>34</ele>
        <time>2022-02-27T18:49:28Z</time>
      </trkpt>
      <trkpt lat="46.60538" lon="-1.39265">
        <ele>36</ele>
        <time>2022-02-27T18:49:45Z</time>
      </trkpt>
      <trkpt lat="46.60575" lon="-1.39263">
        <ele>36</ele>
        <time>2022-02-27T18:49:53Z</time>
      </trkpt>
      <trkpt lat="46.60593" lon="-1.39382">
        <ele>36</ele>
        <time>2022-02-27T18:50:13Z</time>
      </trkpt>
      <trkpt lat="46.60617" lon="-1.39368">
        <ele>36</ele>
        <time>2022-02-27T18:50:19Z</time>
      </trkpt>
      <trkpt lat="46.60623" lon="-1.39332">
        <ele>36</ele>
        <time>2022-02-27T18:50:25Z</time>
      </trkpt>
      <trkpt lat="46.60615" lon="-1.39272">
        <ele>36</ele>
        <time>2022-02-27T18:50:35Z</time>
      </trkpt>
      <trkpt lat="46.60623" lon="-1.3925">
        <ele>36</ele>
        <time>2022-02-27T18:50:39Z</time>
      </trkpt>
      <trkpt lat="46.60652" lon="-1.39221">
        <ele>35</ele>
        <time>2022-02-27T18:50:47Z</time>
      </trkpt>
      <trkpt lat="46.60686" lon="-1.39213">
        <ele>36</ele>
        <time>2022-02-27T18:50:55Z</time>
      </trkpt>
      <trkpt lat="46.60704" lon="-1.39236">
        <ele>37</ele>
        <time>2022-02-27T18:51:01Z</time>
      </trkpt>
      <trkpt lat="46.60808" lon="-1.39307">
        <ele>39</ele>
        <time>2022-02-27T18:51:27Z</time>
      </trkpt>
      <trkpt lat="46.60852" lon="-1.39372">
        <ele>38</ele>
        <time>2022-02-27T18:51:42Z</time>
      </trkpt>
      <trkpt lat="46.60959" lon="-1.39497">
        <ele>39</ele>
        <time>2022-02-27T18:52:14Z</time>
      </trkpt>
      <trkpt lat="46.61002" lon="-1.39553">
        <ele>38</ele>
        <time>2022-02-27T18:52:28Z</time>
      </trkpt>
      <trkpt lat="46.61041" lon="-1.39587">
        <ele>36</ele>
        <time>2022-02-27T18:52:38Z</time>
      </trkpt>
      <trkpt lat="46.61137" lon="-1.39641">
        <ele>35</ele>
        <time>2022-02-27T18:53:02Z</time>
      </trkpt>
      <trkpt lat="46.61154" lon="-1.39673">
        <ele>35</ele>
        <time>2022-02-27T18:53:09Z</time>
      </trkpt>
      <trkpt lat="46.61143" lon="-1.39699">
        <ele>34</ele>
        <time>2022-02-27T18:53:14Z</time>
      </trkpt>
      <trkpt lat="46.61144" lon="-1.3973">
        <ele>34</ele>
        <time>2022-02-27T18:53:19Z</time>
      </trkpt>
      <trkpt lat="46.61127" lon="-1.39807">
        <ele>32</ele>
        <time>2022-02-27T18:53:32Z</time>
      </trkpt>
      <trkpt lat="46.61127" lon="-1.39821">
        <ele>32</ele>
        <time>2022-02-27T18:53:34Z</time>
      </trkpt>
      <trkpt lat="46.61134" lon="-1.39831">
        <ele>31</ele>
        <time>2022-02-27T18:53:36Z</time>
      </trkpt>
      <trkpt lat="46.6116" lon="-1.39832">
        <ele>31</ele>
        <time>2022-02-27T18:53:42Z</time>
      </trkpt>
      <trkpt lat="46.61197" lon="-1.39855">
        <ele>32</ele>
        <time>2022-02-27T18:53:52Z</time>
      </trkpt>
      <trkpt lat="46.61225" lon="-1.39875">
        <ele>33</ele>
        <time>2022-02-27T18:53:59Z</time>
      </trkpt>
      <trkpt lat="46.61227" lon="-1.39892">
        <ele>33</ele>
        <time>2022-02-27T18:54:02Z</time>
      </trkpt>
      <trkpt lat="46.61242" lon="-1.39911">
        <ele>33</ele>
        <time>2022-02-27T18:54:06Z</time>
      </trkpt>
      <trkpt lat="46.61271" lon="-1.39992">
        <ele>34</ele>
        <time>2022-02-27T18:54:21Z</time>
      </trkpt>
      <trkpt lat="46.61336" lon="-1.4002">
        <ele>34</ele>
        <time>2022-02-27T18:54:37Z</time>
      </trkpt>
      <trkpt lat="46.61401" lon="-1.40035">
        <ele>37</ele>
        <time>2022-02-27T18:54:52Z</time>
      </trkpt>
      <trkpt lat="46.61451" lon="-1.40044">
        <ele>37</ele>
        <time>2022-02-27T18:55:04Z</time>
      </trkpt>
      <trkpt lat="46.61481" lon="-1.40048">
        <ele>37</ele>
        <time>2022-02-27T18:55:11Z</time>
      </trkpt>
      <trkpt lat="46.615" lon="-1.40035">
        <ele>38</ele>
        <time>2022-02-27T18:55:16Z</time>
      </trkpt>
      <trkpt lat="46.61508" lon="-1.40039">
        <ele>38</ele>
        <time>2022-02-27T18:55:18Z</time>
      </trkpt>
      <trkpt lat="46.61515" lon="-1.40079">
        <ele>34</ele>
        <time>2022-02-27T18:55:24Z</time>
      </trkpt>
      <trkpt lat="46.61543" lon="-1.40138">
        <ele>32</ele>
        <time>2022-02-27T18:55:36Z</time>
      </trkpt>
      <trkpt lat="46.6156" lon="-1.40221">
        <ele>32</ele>
        <time>2022-02-27T18:55:50Z</time>
      </trkpt>
      <trkpt lat="46.61571" lon="-1.40264">
        <ele>31</ele>
        <time>2022-02-27T18:55:57Z</time>
      </trkpt>
      <trkpt lat="46.61584" lon="-1.40331">
        <ele>32</ele>
        <time>2022-02-27T18:56:08Z</time>
      </trkpt>
      <trkpt lat="46.61591" lon="-1.40344">
        <ele>32</ele>
        <time>2022-02-27T18:56:11Z</time>
      </trkpt>
      <trkpt lat="46.61604" lon="-1.40379">
        <ele>33</ele>
        <time>2022-02-27T18:56:17Z</time>
      </trkpt>
      <trkpt lat="46.61623" lon="-1.40413">
        <ele>33</ele>
        <time>2022-02-27T18:56:24Z</time>
      </trkpt>
      <trkpt lat="46.61665" lon="-1.40521">
        <ele>33</ele>
        <time>2022-02-27T18:56:44Z</time>
      </trkpt>
      <trkpt lat="46.61673" lon="-1.4052">
        <ele>33</ele>
        <time>2022-02-27T18:56:46Z</time>
      </trkpt>
      <trkpt lat="46.61703" lon="-1.40504">
        <ele>33</ele>
        <time>2022-02-27T18:56:54Z</time>
      </trkpt>
      <trkpt lat="46.61719" lon="-1.40507">
        <ele>32</ele>
        <time>2022-02-27T18:56:57Z</time>
      </trkpt>
      <trkpt lat="46.61731" lon="-1.40517">
        <ele>32</ele>
        <time>2022-02-27T18:57:01Z</time>
      </trkpt>
      <trkpt lat="46.6174" lon="-1.40553">
        <ele>33</ele>
        <time>2022-02-27T18:57:07Z</time>
      </trkpt>
      <trkpt lat="46.61749" lon="-1.4057">
        <ele>33</ele>
        <time>2022-02-27T18:57:10Z</time>
      </trkpt>
      <trkpt lat="46.61747" lon="-1.40578">
        <ele>33</ele>
        <time>2022-02-27T18:57:12Z</time>
      </trkpt>
      <trkpt lat="46.61743" lon="-1.40586">
        <ele>33</ele>
        <time>2022-02-27T18:57:13Z</time>
      </trkpt>
      <trkpt lat="46.61748" lon="-1.40608">
        <ele>33</ele>
        <time>2022-02-27T18:57:17Z</time>
      </trkpt>
      <trkpt lat="46.61747" lon="-1.40633">
        <ele>33</ele>
        <time>2022-02-27T18:57:21Z</time>
      </trkpt>
      <trkpt lat="46.6176" lon="-1.4068">
        <ele>33</ele>
        <time>2022-02-27T18:57:29Z</time>
      </trkpt>
      <trkpt lat="46.61775" lon="-1.40738">
        <ele>34</ele>
        <time>2022-02-27T18:57:39Z</time>
      </trkpt>
      <trkpt lat="46.61794" lon="-1.40773">
        <ele>34</ele>
        <time>2022-02-27T18:57:46Z</time>
      </trkpt>
      <trkpt lat="46.61803" lon="-1.408">
        <ele>33</ele>
        <time>2022-02-27T18:57:51Z</time>
      </trkpt>
      <trkpt lat="46.61823" lon="-1.40896">
        <ele>33</ele>
        <time>2022-02-27T18:58:07Z</time>
      </trkpt>
      <trkpt lat="46.61831" lon="-1.40969">
        <ele>33</ele>
        <time>2022-02-27T18:58:19Z</time>
      </trkpt>
      <trkpt lat="46.61832" lon="-1.41008">
        <ele>33</ele>
        <time>2022-02-27T18:58:25Z</time>
      </trkpt>
      <trkpt lat="46.61831" lon="-1.4103">
        <ele>33</ele>
        <time>2022-02-27T18:58:29Z</time>
      </trkpt>
      <trkpt lat="46.61832" lon="-1.41048">
        <ele>34</ele>
        <time>2022-02-27T18:58:32Z</time>
      </trkpt>
      <trkpt lat="46.61827" lon="-1.41055">
        <ele>34</ele>
        <time>2022-02-27T18:58:33Z</time>
      </trkpt>
      <trkpt lat="46.61779" lon="-1.41089">
        <ele>34</ele>
        <time>2022-02-27T18:58:46Z</time>
      </trkpt>
      <trkpt lat="46.61761" lon="-1.411">
        <ele>34</ele>
        <time>2022-02-27T18:58:50Z</time>
      </trkpt>
      <trkpt lat="46.61767" lon="-1.41119">
        <ele>35</ele>
        <time>2022-02-27T18:58:54Z</time>
      </trkpt>
      <trkpt lat="46.61707" lon="-1.41173">
        <ele>37</ele>
        <time>2022-02-27T18:59:10Z</time>
      </trkpt>
      <trkpt lat="46.61676" lon="-1.41288">
        <ele>42</ele>
        <time>2022-02-27T18:59:30Z</time>
      </trkpt>
      <trkpt lat="46.61605" lon="-1.41373">
        <ele>43</ele>
        <time>2022-02-27T18:59:51Z</time>
      </trkpt>
      <trkpt lat="46.61503" lon="-1.41444">
        <ele>43</ele>
        <time>2022-02-27T19:00:18Z</time>
      </trkpt>
      <trkpt lat="46.61524" lon="-1.41503">
        <ele>45</ele>
        <time>2022-02-27T19:00:28Z</time>
      </trkpt>
      <trkpt lat="46.6158" lon="-1.41665">
        <ele>50</ele>
        <time>2022-02-27T19:00:57Z</time>
      </trkpt>
      <trkpt lat="46.61664" lon="-1.41869">
        <ele>52</ele>
        <time>2022-02-27T19:01:36Z</time>
      </trkpt>
      <trkpt lat="46.61808" lon="-1.42019">
        <ele>50</ele>
        <time>2022-02-27T19:02:17Z</time>
      </trkpt>
      <trkpt lat="46.61861" lon="-1.42135">
        <ele>48</ele>
        <time>2022-02-27T19:02:39Z</time>
      </trkpt>
      <trkpt lat="46.61989" lon="-1.42094">
        <ele>44</ele>
        <time>2022-02-27T19:03:10Z</time>
      </trkpt>
      <trkpt lat="46.61989" lon="-1.42156">
        <ele>44</ele>
        <time>2022-02-27T19:03:20Z</time>
      </trkpt>
      <trkpt lat="46.61956" lon="-1.42246">
        <ele>42</ele>
        <time>2022-02-27T19:03:36Z</time>
      </trkpt>
      <trkpt lat="46.62083" lon="-1.42341">
        <ele>39</ele>
        <time>2022-02-27T19:04:10Z</time>
      </trkpt>
      <trkpt lat="46.62016" lon="-1.42514">
        <ele>41</ele>
        <time>2022-02-27T19:04:41Z</time>
      </trkpt>
      <trkpt lat="46.61947" lon="-1.42695">
        <ele>45</ele>
        <time>2022-02-27T19:05:15Z</time>
      </trkpt>
      <trkpt lat="46.61892" lon="-1.42673">
        <ele>47</ele>
        <time>2022-02-27T19:05:28Z</time>
      </trkpt>
      <trkpt lat="46.61756" lon="-1.42911">
        <ele>46</ele>
        <time>2022-02-27T19:06:18Z</time>
      </trkpt>
      <trkpt lat="46.61716" lon="-1.42991">
        <ele>46</ele>
        <time>2022-02-27T19:06:34Z</time>
      </trkpt>
      <trkpt lat="46.61667" lon="-1.43171">
        <ele>49</ele>
        <time>2022-02-27T19:07:05Z</time>
      </trkpt>
      <trkpt lat="46.61681" lon="-1.43279">
        <ele>48</ele>
        <time>2022-02-27T19:07:22Z</time>
      </trkpt>
      <trkpt lat="46.61642" lon="-1.43412">
        <ele>49</ele>
        <time>2022-02-27T19:07:45Z</time>
      </trkpt>
      <trkpt lat="46.61518" lon="-1.43451">
        <ele>51</ele>
        <time>2022-02-27T19:08:15Z</time>
      </trkpt>
      <trkpt lat="46.61615" lon="-1.43657">
        <ele>44</ele>
        <time>2022-02-27T19:08:55Z</time>
      </trkpt>
      <trkpt lat="46.61697" lon="-1.437">
        <ele>41</ele>
        <time>2022-02-27T19:09:15Z</time>
      </trkpt>
      <trkpt lat="46.61754" lon="-1.43755">
        <ele>40</ele>
        <time>2022-02-27T19:09:31Z</time>
      </trkpt>
      <trkpt lat="46.61747" lon="-1.43874">
        <ele>43</ele>
        <time>2022-02-27T19:09:51Z</time>
      </trkpt>
      <trkpt lat="46.61682" lon="-1.43939">
        <ele>46</ele>
        <time>2022-02-27T19:10:09Z</time>
      </trkpt>
      <trkpt lat="46.6168" lon="-1.4404">
        <ele>49</ele>
        <time>2022-02-27T19:10:25Z</time>
      </trkpt>
      <trkpt lat="46.61605" lon="-1.44119">
        <ele>51</ele>
        <time>2022-02-27T19:10:47Z</time>
      </trkpt>
      <trkpt lat="46.61434" lon="-1.44206">
        <ele>44</ele>
        <time>2022-02-27T19:11:29Z</time>
      </trkpt>
      <trkpt lat="46.61379" lon="-1.44331">
        <ele>46</ele>
        <time>2022-02-27T19:11:53Z</time>
      </trkpt>
      <trkpt lat="46.61356" lon="-1.44352">
        <ele>47</ele>
        <time>2022-02-27T19:11:59Z</time>
      </trkpt>
      <trkpt lat="46.61288" lon="-1.44392">
        <ele>49</ele>
        <time>2022-02-27T19:12:16Z</time>
      </trkpt>
      <trkpt lat="46.61258" lon="-1.44303">
        <ele>47</ele>
        <time>2022-02-27T19:12:32Z</time>
      </trkpt>
      <trkpt lat="46.61218" lon="-1.44281">
        <ele>46</ele>
        <time>2022-02-27T19:12:42Z</time>
      </trkpt>
      <trkpt lat="46.6113" lon="-1.44369">
        <ele>49</ele>
        <time>2022-02-27T19:13:07Z</time>
      </trkpt>
      <trkpt lat="46.61079" lon="-1.4449">
        <ele>53</ele>
        <time>2022-02-27T19:13:30Z</time>
      </trkpt>
      <trkpt lat="46.60852" lon="-1.44518">
        <ele>53</ele>
        <time>2022-02-27T19:14:23Z</time>
      </trkpt>
      <trkpt lat="46.60779" lon="-1.44515">
        <ele>50</ele>
        <time>2022-02-27T19:14:40Z</time>
      </trkpt>
      <trkpt lat="46.6073" lon="-1.44513">
        <ele>49</ele>
        <time>2022-02-27T19:14:52Z</time>
      </trkpt>
      <trkpt lat="46.60681" lon="-1.44444">
        <ele>48</ele>
        <time>2022-02-27T19:15:08Z</time>
      </trkpt>
      <trkpt lat="46.60667" lon="-1.44383">
        <ele>47</ele>
        <time>2022-02-27T19:15:18Z</time>
      </trkpt>
      <trkpt lat="46.60654" lon="-1.44387">
        <ele>47</ele>
        <time>2022-02-27T19:15:21Z</time>
      </trkpt>
      <trkpt lat="46.6065" lon="-1.44427">
        <ele>47</ele>
        <time>2022-02-27T19:15:28Z</time>
      </trkpt>
      <trkpt lat="46.6064" lon="-1.44448">
        <ele>48</ele>
        <time>2022-02-27T19:15:32Z</time>
      </trkpt>
      <trkpt lat="46.6063" lon="-1.44437">
        <ele>48</ele>
        <time>2022-02-27T19:15:35Z</time>
      </trkpt>
      <trkpt lat="46.6063" lon="-1.44385">
        <ele>47</ele>
        <time>2022-02-27T19:15:43Z</time>
      </trkpt>
      <trkpt lat="46.60619" lon="-1.4437">
        <ele>47</ele>
        <time>2022-02-27T19:15:46Z</time>
      </trkpt>
      <trkpt lat="46.60556" lon="-1.444">
        <ele>47</ele>
        <time>2022-02-27T19:16:02Z</time>
      </trkpt>
      <trkpt lat="46.60528" lon="-1.44424">
        <ele>47</ele>
        <time>2022-02-27T19:16:09Z</time>
      </trkpt>
      <trkpt lat="46.60471" lon="-1.44443">
        <ele>47</ele>
        <time>2022-02-27T19:16:23Z</time>
      </trkpt>
      <trkpt lat="46.60441" lon="-1.44455">
        <ele>47</ele>
        <time>2022-02-27T19:16:30Z</time>
      </trkpt>
      <trkpt lat="46.60428" lon="-1.44505">
        <ele>49</ele>
        <time>2022-02-27T19:16:39Z</time>
      </trkpt>
      <trkpt lat="46.60404" lon="-1.44558">
        <ele>51</ele>
        <time>2022-02-27T19:16:49Z</time>
      </trkpt>
      <trkpt lat="46.60401" lon="-1.44674">
        <ele>53</ele>
        <time>2022-02-27T19:17:08Z</time>
      </trkpt>
      <trkpt lat="46.60344" lon="-1.44779">
        <ele>56</ele>
        <time>2022-02-27T19:17:29Z</time>
      </trkpt>
      <trkpt lat="46.60297" lon="-1.44854">
        <ele>58</ele>
        <time>2022-02-27T19:17:46Z</time>
      </trkpt>
      <trkpt lat="46.60283" lon="-1.44857">
        <ele>59</ele>
        <time>2022-02-27T19:17:49Z</time>
      </trkpt>
      <trkpt lat="46.60236" lon="-1.44823">
        <ele>59</ele>
        <time>2022-02-27T19:18:01Z</time>
      </trkpt>
      <trkpt lat="46.60198" lon="-1.44855">
        <ele>60</ele>
        <time>2022-02-27T19:18:11Z</time>
      </trkpt>
      <trkpt lat="46.60136" lon="-1.44915">
        <ele>60</ele>
        <time>2022-02-27T19:18:29Z</time>
      </trkpt>
      <trkpt lat="46.60109" lon="-1.44924">
        <ele>60</ele>
        <time>2022-02-27T19:18:35Z</time>
      </trkpt>
      <trkpt lat="46.60068" lon="-1.44898">
        <ele>58</ele>
        <time>2022-02-27T19:18:46Z</time>
      </trkpt>
      <trkpt lat="46.60046" lon="-1.44897">
        <ele>58</ele>
        <time>2022-02-27T19:18:51Z</time>
      </trkpt>
      <trkpt lat="46.60032" lon="-1.44924">
        <ele>57</ele>
        <time>2022-02-27T19:18:56Z</time>
      </trkpt>
      <trkpt lat="46.6002" lon="-1.44957">
        <ele>57</ele>
        <time>2022-02-27T19:19:02Z</time>
      </trkpt>
      <trkpt lat="46.59988" lon="-1.44968">
        <ele>56</ele>
        <time>2022-02-27T19:19:10Z</time>
      </trkpt>
      <trkpt lat="46.59954" lon="-1.44965">
        <ele>57</ele>
        <time>2022-02-27T19:19:18Z</time>
      </trkpt>
      <trkpt lat="46.59938" lon="-1.4499">
        <ele>58</ele>
        <time>2022-02-27T19:19:23Z</time>
      </trkpt>
      <trkpt lat="46.59925" lon="-1.4501">
        <ele>59</ele>
        <time>2022-02-27T19:19:28Z</time>
      </trkpt>
      <trkpt lat="46.59889" lon="-1.45044">
        <ele>59</ele>
        <time>2022-02-27T19:19:38Z</time>
      </trkpt>
      <trkpt lat="46.59761" lon="-1.45072">
        <ele>56</ele>
        <time>2022-02-27T19:20:08Z</time>
      </trkpt>
      <trkpt lat="46.59755" lon="-1.44987">
        <ele>55</ele>
        <time>2022-02-27T19:20:22Z</time>
      </trkpt>
      <trkpt lat="46.59774" lon="-1.44923">
        <ele>53</ele>
        <time>2022-02-27T19:20:33Z</time>
      </trkpt>
      <trkpt lat="46.59756" lon="-1.44877">
        <ele>53</ele>
        <time>2022-02-27T19:20:41Z</time>
      </trkpt>
      <trkpt lat="46.59728" lon="-1.44837">
        <ele>54</ele>
        <time>2022-02-27T19:20:51Z</time>
      </trkpt>
      <trkpt lat="46.59706" lon="-1.44846">
        <ele>55</ele>
        <time>2022-02-27T19:20:56Z</time>
      </trkpt>
      <trkpt lat="46.59556" lon="-1.44838">
        <ele>58</ele>
        <time>2022-02-27T19:21:31Z</time>
      </trkpt>
      <trkpt lat="46.59488" lon="-1.448">
        <ele>60</ele>
        <time>2022-02-27T19:21:48Z</time>
      </trkpt>
      <trkpt lat="46.59498" lon="-1.44873">
        <ele>59</ele>
        <time>2022-02-27T19:22:00Z</time>
      </trkpt>
      <trkpt lat="46.59512" lon="-1.44892">
        <ele>58</ele>
        <time>2022-02-27T19:22:04Z</time>
      </trkpt>
      <trkpt lat="46.59515" lon="-1.44909">
        <ele>57</ele>
        <time>2022-02-27T19:22:07Z</time>
      </trkpt>
      <trkpt lat="46.59529" lon="-1.44931">
        <ele>56</ele>
        <time>2022-02-27T19:22:12Z</time>
      </trkpt>
      <trkpt lat="46.59541" lon="-1.44931">
        <ele>56</ele>
        <time>2022-02-27T19:22:15Z</time>
      </trkpt>
      <trkpt lat="46.59544" lon="-1.44947">
        <ele>56</ele>
        <time>2022-02-27T19:22:17Z</time>
      </trkpt>
      <trkpt lat="46.59565" lon="-1.45049">
        <ele>52</ele>
        <time>2022-02-27T19:22:35Z</time>
      </trkpt>
      <trkpt lat="46.59502" lon="-1.45079">
        <ele>52</ele>
        <time>2022-02-27T19:22:50Z</time>
      </trkpt>
      <trkpt lat="46.59518" lon="-1.45146">
        <ele>51</ele>
        <time>2022-02-27T19:23:01Z</time>
      </trkpt>
      <trkpt lat="46.59535" lon="-1.45146">
        <ele>51</ele>
        <time>2022-02-27T19:23:05Z</time>
      </trkpt>
      <trkpt lat="46.59552" lon="-1.45166">
        <ele>52</ele>
        <time>2022-02-27T19:23:10Z</time>
      </trkpt>
      <trkpt lat="46.59549" lon="-1.45178">
        <ele>52</ele>
        <time>2022-02-27T19:23:13Z</time>
      </trkpt>
      <trkpt lat="46.59527" lon="-1.45208">
        <ele>52</ele>
        <time>2022-02-27T19:23:20Z</time>
      </trkpt>
      <trkpt lat="46.59518" lon="-1.45232">
        <ele>52</ele>
        <time>2022-02-27T19:23:24Z</time>
      </trkpt>
      <trkpt lat="46.59516" lon="-1.45253">
        <ele>53</ele>
        <time>2022-02-27T19:23:27Z</time>
      </trkpt>
      <trkpt lat="46.59534" lon="-1.45326">
        <ele>55</ele>
        <time>2022-02-27T19:23:40Z</time>
      </trkpt>
    </trkseg>
  </trk>
</gpx>